TimeEDT,TemperatureF,Dew PointF,Humidity,Sea Level PressureIn,VisibilityMPH,Wind Direction,Wind SpeedMPH,Gust SpeedMPH,PrecipitationIn,Events,Conditions,WindDirDegrees,DateUTC
12:54 AM,39.9,28.9,65,29.85,10.0,WNW,11.5,20.7,N/A,,Overcast,300,2012-10-23 04:54:00
1:54 AM,39.9,28.9,65,29.87,10.0,NW,10.4,17.3,N/A,,Overcast,310,2012-10-23 05:54:00
2:54 AM,39.0,28.9,67,29.87,10.0,NW,12.7,20.7,N/A,,Mostly Cloudy,310,2012-10-23 06:54:00
3:54 AM,39.0,28.9,67,29.88,10.0,NW,11.5,19.6,N/A,,Overcast,320,2012-10-23 07:54:00
4:54 AM,37.9,28.9,70,29.90,10.0,NW,9.2,-,N/A,,Mostly Cloudy,320,2012-10-23 08:54:00
5:54 AM,37.9,28.9,70,29.92,10.0,NW,11.5,19.6,N/A,,Overcast,310,2012-10-23 09:54:00
6:54 AM,39.0,28.0,65,29.93,10.0,NW,11.5,25.3,N/A,,Overcast,310,2012-10-23 10:54:00
7:54 AM,39.0,28.0,65,29.96,10.0,NW,16.1,24.2,N/A,,Overcast,310,2012-10-23 11:54:00
8:54 AM,39.9,28.9,65,29.97,10.0,NW,15.0,26.5,N/A,,Overcast,320,2012-10-23 12:54:00
9:54 AM,42.1,28.9,60,29.98,10.0,NW,17.3,26.5,N/A,,Mostly Cloudy,320,2012-10-23 13:54:00
10:54 AM,44.1,30.0,58,29.97,10.0,NW,15.0,21.9,N/A,,Mostly Cloudy,320,2012-10-23 14:54:00
11:54 AM,46.0,30.0,54,29.96,10.0,NW,13.8,25.3,N/A,,Scattered Clouds,310,2012-10-23 15:54:00
1:54 PM,48.9,30.9,50,29.95,10.0,NW,11.5,18.4,N/A,,Scattered Clouds,320,2012-10-23 17:54:00
2:54 PM,50.0,28.9,44,29.94,10.0,NNW,15.0,25.3,N/A,,Clear,330,2012-10-23 18:54:00
3:54 PM,48.0,28.0,46,29.95,10.0,NNW,18.4,26.5,N/A,,Clear,340,2012-10-23 19:54:00
4:54 PM,46.0,28.9,51,29.98,10.0,NNW,13.8,-,N/A,,Clear,330,2012-10-23 20:54:00
5:54 PM,42.1,28.9,60,30.02,10.0,NNW,9.2,-,N/A,,Partly Cloudy,340,2012-10-23 21:54:00
6:54 PM,42.1,28.0,58,30.04,10.0,NW,13.8,17.3,N/A,,Overcast,320,2012-10-23 22:54:00
7:54 PM,39.0,28.0,65,30.06,10.0,NW,8.1,-,N/A,,Clear,310,2012-10-23 23:54:00
8:54 PM,37.9,28.0,68,30.06,10.0,NW,10.4,-,N/A,,Clear,320,2012-10-24 00:54:00
9:54 PM,37.0,28.0,70,30.07,10.0,NNW,10.4,-,N/A,,Clear,340,2012-10-24 01:54:00
10:54 PM,35.1,28.0,76,30.07,10.0,NNW,4.6,-,N/A,,Clear,330,2012-10-24 02:54:00
11:54 PM,34.0,27.0,75,30.08,10.0,WNW,3.5,-,N/A,,Clear,290,2012-10-24 03:54:00